Location: Seattle
(47.6064°N, 122.3308°W)
Time: 18:22:33
(UTC-07:00)

Tiros 1 - Pass Details

Date: 30 July 2021
Orbit: 630 x 663 km, 48.4° (Epoch: 18 September)

Event Time Altitude Azimuth Distance (km) Brightness Sun altitude
Rises 21:42:10 0° 261° (W) 2,975 11.2 -8.7°
Reaches altitude 10° 21:44:31 10° 262° (W) 2,059 10.4 -9.0°
Maximum altitude 21:49:17 85° 350° (N) 656 7.2 -9.6°
Drops below altitude 10° 21:54:00 10° 81° (E) 2,040 9.3 -10.2°
Enters shadow 21:55:52 - 82° (E) 2,764 10.0 -10.4°
